Time,TemperatureF,DewpointF,PressureIn,WindDirection,WindDirectionDegrees,WindSpeedMPH,WindSpeedGustMPH,Humidity,HourlyPrecipIn,Conditions,Clouds,dailyrainin,SoftwareType,DateUTC
2013-06-02 00:01:00,79.4,63.8,29.89,South,186,2.0,2.0,59,0.00,,,0.00,Wunderground v.1.15,2013-06-02 04:01:00,
2013-06-02 00:03:00,79.4,64.3,29.89,ESE,110,2.0,13.0,60,0.00,,,0.00,Wunderground v.1.15,2013-06-02 04:03:00,
2013-06-02 00:07:00,79.2,63.6,29.89,SSW,198,3.0,13.0,59,0.00,,,0.00,Wunderground v.1.15,2013-06-02 04:07:00,
2013-06-02 00:12:00,79.2,63.6,29.89,SSW,196,3.0,13.0,59,0.00,,,0.00,Wunderground v.1.15,2013-06-02 04:12:00,
2013-06-02 00:17:00,79.2,63.6,29.88,East,99,3.0,13.0,59,0.00,,,0.00,Wunderground v.1.15,2013-06-02 04:17:00,
2013-06-02 00:21:00,79.2,63.6,29.88,South,179,3.0,13.0,59,0.00,,,0.00,Wunderground v.1.15,2013-06-02 04:21:00,
2013-06-02 00:26:00,79.2,63.6,29.88,SSE,162,3.0,13.0,59,0.00,,,0.00,Wunderground v.1.15,2013-06-02 04:26:00,
2013-06-02 00:31:00,79.2,63.6,29.88,SW,222,2.0,13.0,59,0.00,,,0.00,Wunderground v.1.15,2013-06-02 04:31:00,
2013-06-02 00:36:00,79.0,63.4,29.88,South,172,3.0,13.0,59,0.00,,,0.00,Wunderground v.1.15,2013-06-02 04:36:00,
2013-06-02 00:41:00,79.0,63.4,29.88,SSW,212,3.0,13.0,59,0.00,,,0.00,Wunderground v.1.15,2013-06-02 04:41:00,
2013-06-02 00:46:00,79.0,63.4,29.88,South,184,2.0,13.0,59,0.00,,,0.00,Wunderground v.1.15,2013-06-02 04:46:00,
2013-06-02 00:51:00,79.0,63.9,29.88,SSW,213,2.0,13.0,60,0.00,,,0.00,Wunderground v.1.15,2013-06-02 04:51:00,
2013-06-02 00:56:00,78.8,63.7,29.88,SE,144,2.0,13.0,60,0.00,,,0.00,Wunderground v.1.15,2013-06-02 04:56:00,
2013-06-02 01:02:00,78.8,63.7,29.88,SW,233,2.0,11.0,60,0.00,,,0.00,Wunderground v.1.15,2013-06-02 05:02:00,
2013-06-02 01:07:00,78.8,63.7,29.88,SSE,154,2.0,11.0,60,0.00,,,0.00,Wunderground v.1.15,2013-06-02 05:07:00,
2013-06-02 01:12:00,78.6,63.6,29.88,South,191,2.0,11.0,60,0.00,,,0.00,Wunderground v.1.15,2013-06-02 05:12:00,
2013-06-02 01:17:00,78.6,63.6,29.88,SSE,167,1.0,11.0,60,0.00,,,0.00,Wunderground v.1.15,2013-06-02 05:17:00,
2013-06-02 01:22:00,78.5,63.5,29.88,NW,315,1.0,11.0,60,0.00,,,0.00,Wunderground v.1.15,2013-06-02 05:22:00,
2013-06-02 01:28:00,78.3,63.7,29.88,NW,309,1.0,11.0,61,0.00,,,0.00,Wunderground v.1.15,2013-06-02 05:28:00,
2013-06-02 01:33:00,78.1,63.6,29.88,SSW,210,2.0,11.0,61,0.00,,,0.00,Wunderground v.1.15,2013-06-02 05:33:00,
2013-06-02 01:38:00,78.1,63.6,29.88,SE,144,2.0,11.0,61,0.00,,,0.00,Wunderground v.1.15,2013-06-02 05:38:00,
2013-06-02 01:44:00,77.9,63.4,29.88,SSW,210,1.0,11.0,61,0.00,,,0.00,Wunderground v.1.15,2013-06-02 05:44:00,
2013-06-02 01:50:00,77.7,63.2,29.87,SSW,198,2.0,11.0,61,0.00,,,0.00,Wunderground v.1.15,2013-06-02 05:50:00,
2013-06-02 01:55:00,77.7,63.2,29.87,SSE,160,2.0,11.0,61,0.00,,,0.00,Wunderground v.1.15,2013-06-02 05:55:00,
2013-06-02 02:00:00,77.6,63.1,29.87,SSW,202,2.0,2.0,61,0.00,,,0.00,Wunderground v.1.15,2013-06-02 06:00:00,
2013-06-02 02:06:00,77.4,63.4,29.87,SSE,150,2.0,8.0,62,0.00,,,0.00,Wunderground v.1.15,2013-06-02 06:06:00,
2013-06-02 02:11:00,77.4,63.4,29.87,SSE,150,1.0,8.0,62,0.00,,,0.00,Wunderground v.1.15,2013-06-02 06:11:00,
2013-06-02 02:16:00,77.2,63.2,29.86,SSW,198,1.0,8.0,62,0.00,,,0.00,Wunderground v.1.15,2013-06-02 06:16:00,
2013-06-02 02:21:00,77.2,63.2,29.86,SSE,155,2.0,8.0,62,0.00,,,0.00,Wunderground v.1.15,2013-06-02 06:21:00,
2013-06-02 02:26:00,77.0,63.4,29.86,SSW,205,1.0,8.0,63,0.00,,,0.00,Wunderground v.1.15,2013-06-02 06:26:00,
2013-06-02 02:31:00,76.8,63.2,29.86,South,172,1.0,8.0,63,0.00,,,0.00,Wunderground v.1.15,2013-06-02 06:31:00,
2013-06-02 02:36:00,76.8,62.8,29.86,SSE,148,2.0,8.0,62,0.00,,,0.00,Wunderground v.1.15,2013-06-02 06:36:00,
2013-06-02 02:42:00,76.7,63.2,29.86,South,179,2.0,8.0,63,0.00,,,0.00,Wunderground v.1.15,2013-06-02 06:42:00,
2013-06-02 02:47:00,76.7,63.2,29.86,SSE,167,2.0,10.0,63,0.00,,,0.00,Wunderground v.1.15,2013-06-02 06:47:00,
2013-06-02 02:52:00,76.7,63.2,29.86,SW,219,2.0,8.0,63,0.00,,,0.00,Wunderground v.1.15,2013-06-02 06:52:00,
2013-06-02 02:57:00,76.7,63.2,29.86,South,188,2.0,8.0,63,0.00,,,0.00,Wunderground v.1.15,2013-06-02 06:57:00,
2013-06-02 03:03:00,76.5,63.0,29.86,SSW,199,2.0,7.0,63,0.00,,,0.00,Wunderground v.1.15,2013-06-02 07:03:00,
2013-06-02 03:08:00,76.5,63.0,29.86,SW,220,2.0,7.0,63,0.00,,,0.00,Wunderground v.1.15,2013-06-02 07:08:00,
2013-06-02 03:13:00,76.5,63.4,29.86,SW,217,1.0,7.0,64,0.00,,,0.00,Wunderground v.1.15,2013-06-02 07:13:00,
2013-06-02 03:19:00,76.3,63.2,29.85,SSE,161,2.0,7.0,64,0.00,,,0.00,Wunderground v.1.15,2013-06-02 07:19:00,
2013-06-02 03:24:00,76.3,63.2,29.85,South,169,2.0,7.0,64,0.00,,,0.00,Wunderground v.1.15,2013-06-02 07:24:00,
2013-06-02 03:29:00,76.3,63.2,29.85,SSW,192,2.0,8.0,64,0.00,,,0.00,Wunderground v.1.15,2013-06-02 07:29:00,
2013-06-02 03:34:00,76.1,63.0,29.85,SW,219,3.0,7.0,64,0.00,,,0.00,Wunderground v.1.15,2013-06-02 07:34:00,
2013-06-02 03:39:00,76.1,63.0,29.85,South,181,2.0,7.0,64,0.00,,,0.00,Wunderground v.1.15,2013-06-02 07:39:00,
2013-06-02 03:44:00,76.1,63.5,29.85,SSE,162,1.0,7.0,65,0.00,,,0.00,Wunderground v.1.15,2013-06-02 07:44:00,
2013-06-02 03:49:00,76.0,63.4,29.84,SW,215,1.0,9.0,65,0.00,,,0.00,Wunderground v.1.15,2013-06-02 07:49:00,
2013-06-02 03:54:00,76.0,63.4,29.84,South,181,2.0,7.0,65,0.00,,,0.00,Wunderground v.1.15,2013-06-02 07:54:00,
2013-06-02 04:00:00,76.0,63.4,29.84,SW,226,2.0,10.0,65,0.00,,,0.00,Wunderground v.1.15,2013-06-02 08:00:00,
2013-06-02 04:06:00,75.8,63.6,29.84,SSW,205,1.0,10.0,66,0.00,,,0.00,Wunderground v.1.15,2013-06-02 08:06:00,
2013-06-02 04:11:00,75.8,63.6,29.84,SSW,202,1.0,10.0,66,0.00,,,0.00,Wunderground v.1.15,2013-06-02 08:11:00,
2013-06-02 04:16:00,75.6,63.4,29.84,SSW,193,1.0,10.0,66,0.00,,,0.00,Wunderground v.1.15,2013-06-02 08:16:00,
2013-06-02 04:21:00,75.6,63.4,29.84,SW,223,1.0,4.0,66,0.00,,,0.00,Wunderground v.1.15,2013-06-02 08:21:00,
2013-06-02 04:26:00,75.6,63.4,29.84,South,178,1.0,10.0,66,0.00,,,0.00,Wunderground v.1.15,2013-06-02 08:26:00,
2013-06-02 04:31:00,75.4,63.2,29.84,NW,312,1.0,10.0,66,0.00,,,0.00,Wunderground v.1.15,2013-06-02 08:31:00,
2013-06-02 04:37:00,75.4,63.2,29.84,SSE,162,1.0,10.0,66,0.00,,,0.00,Wunderground v.1.15,2013-06-02 08:37:00,
2013-06-02 04:42:00,75.3,63.6,29.84,South,175,1.0,10.0,67,0.00,,,0.00,Wunderground v.1.15,2013-06-02 08:42:00,
2013-06-02 04:47:00,75.3,63.6,29.84,South,185,1.0,10.0,67,0.00,,,0.00,Wunderground v.1.15,2013-06-02 08:47:00,
2013-06-02 04:52:00,75.3,63.2,29.84,SSW,195,1.0,10.0,66,0.00,,,0.00,Wunderground v.1.15,2013-06-02 08:52:00,
2013-06-02 04:57:00,75.1,63.0,29.84,South,178,1.0,10.0,66,0.00,,,0.00,Wunderground v.1.15,2013-06-02 08:57:00,
2013-06-02 05:02:00,75.1,63.0,29.84,South,178,1.0,8.0,66,0.00,,,0.00,Wunderground v.1.15,2013-06-02 09:02:00,
2013-06-02 05:07:00,74.9,63.2,29.84,South,188,1.0,8.0,67,0.00,,,0.00,Wunderground v.1.15,2013-06-02 09:07:00,
2013-06-02 05:13:00,74.9,63.2,29.84,SSW,200,1.0,8.0,67,0.00,,,0.00,Wunderground v.1.15,2013-06-02 09:13:00,
2013-06-02 05:18:00,74.7,63.4,29.84,SW,215,1.0,8.0,68,0.00,,,0.00,Wunderground v.1.15,2013-06-02 09:18:00,
2013-06-02 05:23:00,74.7,63.4,29.84,WSW,258,0.0,8.0,68,0.00,,,0.00,Wunderground v.1.15,2013-06-02 09:23:00,
2013-06-02 05:28:00,74.6,63.3,29.84,SSW,205,0.0,8.0,68,0.00,,,0.00,Wunderground v.1.15,2013-06-02 09:28:00,
2013-06-02 05:33:00,74.6,63.3,29.85,SSW,210,0.0,8.0,68,0.00,,,0.00,Wunderground v.1.15,2013-06-02 09:33:00,
2013-06-02 05:38:00,74.6,63.8,29.85,SSW,195,0.0,8.0,69,0.00,,,0.00,Wunderground v.1.15,2013-06-02 09:38:00,
2013-06-02 05:43:00,74.4,63.6,29.85,South,179,0.0,8.0,69,0.00,,,0.00,Wunderground v.1.15,2013-06-02 09:43:00,
2013-06-02 05:48:00,74.4,64.0,29.85,SSE,161,0.0,8.0,70,0.00,,,0.00,Wunderground v.1.15,2013-06-02 09:48:00,
2013-06-02 05:53:00,74.2,63.8,29.85,WSW,250,1.0,8.0,70,0.00,,,0.00,Wunderground v.1.15,2013-06-02 09:53:00,
2013-06-02 05:59:00,74.2,63.8,29.84,South,182,1.0,8.0,70,0.00,,,0.00,Wunderground v.1.15,2013-06-02 09:59:00,
2013-06-02 06:05:00,74.2,63.8,29.84,South,185,0.0,8.0,70,0.00,,,0.00,Wunderground v.1.15,2013-06-02 10:05:00,
2013-06-02 06:10:00,74.0,63.6,29.84,South,189,0.0,8.0,70,0.00,,,0.00,Wunderground v.1.15,2013-06-02 10:10:00,
2013-06-02 06:15:00,74.0,64.0,29.84,SSW,196,1.0,8.0,71,0.00,,,0.00,Wunderground v.1.15,2013-06-02 10:15:00,
2013-06-02 06:20:00,74.0,64.0,29.84,SE,143,2.0,8.0,71,0.00,,,0.00,Wunderground v.1.15,2013-06-02 10:20:00,
2013-06-02 06:25:00,73.9,64.3,29.84,South,185,2.0,8.0,72,0.00,,,0.00,Wunderground v.1.15,2013-06-02 10:25:00,
2013-06-02 06:30:00,73.9,64.3,29.84,SSW,213,1.0,1.0,72,0.00,,,0.00,Wunderground v.1.15,2013-06-02 10:30:00,
2013-06-02 06:35:00,73.9,64.7,29.84,South,179,2.0,8.0,73,0.00,,,0.00,Wunderground v.1.15,2013-06-02 10:35:00,
2013-06-02 06:40:00,73.9,64.7,29.84,South,181,1.0,1.0,73,0.00,,,0.00,Wunderground v.1.15,2013-06-02 10:40:00,
2013-06-02 06:45:00,73.9,64.7,29.85,South,181,1.0,8.0,73,0.00,,,0.00,Wunderground v.1.15,2013-06-02 10:45:00,
2013-06-02 06:50:00,73.9,65.1,29.85,SE,137,0.0,8.0,74,0.00,,,0.00,Wunderground v.1.15,2013-06-02 10:50:00,
2013-06-02 06:56:00,73.7,64.9,29.85,South,186,1.0,8.0,74,0.00,,,0.00,Wunderground v.1.15,2013-06-02 10:56:00,
2013-06-02 07:02:00,73.7,64.9,29.85,WSW,247,2.0,8.0,74,0.00,,,0.00,Wunderground v.1.15,2013-06-02 11:02:00,
2013-06-02 07:07:00,73.7,65.3,29.85,SSW,199,1.0,8.0,75,0.00,,,0.00,Wunderground v.1.15,2013-06-02 11:07:00,
2013-06-02 07:12:00,73.7,65.3,29.85,South,178,1.0,8.0,75,0.00,,,0.00,Wunderground v.1.15,2013-06-02 11:12:00,
2013-06-02 07:17:00,73.7,65.3,29.85,SW,223,1.0,8.0,75,0.00,,,0.00,Wunderground v.1.15,2013-06-02 11:17:00,
2013-06-02 07:22:00,73.7,65.3,29.85,South,185,2.0,8.0,75,0.00,,,0.00,Wunderground v.1.15,2013-06-02 11:22:00,
2013-06-02 07:27:00,73.7,65.7,29.85,SSW,208,1.0,10.0,76,0.00,,,0.00,Wunderground v.1.15,2013-06-02 11:27:00,
2013-06-02 07:33:00,73.7,65.7,29.85,NW,313,1.0,8.0,76,0.00,,,0.00,Wunderground v.1.15,2013-06-02 11:33:00,
2013-06-02 07:38:00,73.7,65.7,29.85,WNW,301,1.0,8.0,76,0.00,,,0.00,Wunderground v.1.15,2013-06-02 11:38:00,
2013-06-02 07:43:00,73.7,66.0,29.85,WSW,250,1.0,8.0,77,0.00,,,0.00,Wunderground v.1.15,2013-06-02 11:43:00,
2013-06-02 07:48:00,73.7,66.0,29.85,SSW,206,1.0,8.0,77,0.00,,,0.00,Wunderground v.1.15,2013-06-02 11:48:00,
2013-06-02 07:53:00,73.9,66.2,29.85,South,176,1.0,8.0,77,0.00,,,0.00,Wunderground v.1.15,2013-06-02 11:53:00,
2013-06-02 07:58:00,73.9,66.2,29.85,SE,145,1.0,8.0,77,0.00,,,0.00,Wunderground v.1.15,2013-06-02 11:58:00,
2013-06-02 08:03:00,73.9,66.2,29.86,South,191,3.0,11.0,77,0.00,,,0.00,Wunderground v.1.15,2013-06-02 12:03:00,
2013-06-02 08:08:00,74.0,66.3,29.86,SSE,154,3.0,11.0,77,0.00,,,0.00,Wunderground v.1.15,2013-06-02 12:08:00,
2013-06-02 08:13:00,74.0,66.3,29.86,WSW,246,2.0,10.0,77,0.00,,,0.00,Wunderground v.1.15,2013-06-02 12:13:00,
2013-06-02 08:18:00,74.2,66.5,29.86,South,189,2.0,10.0,77,0.00,,,0.00,Wunderground v.1.15,2013-06-02 12:18:00,
2013-06-02 08:24:00,74.4,66.3,29.86,SW,222,2.0,10.0,76,0.00,,,0.00,Wunderground v.1.15,2013-06-02 12:24:00,
2013-06-02 08:29:00,74.4,66.3,29.86,SSE,162,2.0,10.0,76,0.00,,,0.00,Wunderground v.1.15,2013-06-02 12:29:00,
2013-06-02 08:34:00,74.6,66.5,29.86,SSW,195,3.0,10.0,76,0.00,,,0.00,Wunderground v.1.15,2013-06-02 12:34:00,
2013-06-02 08:39:00,74.7,66.6,29.86,SSW,203,3.0,10.0,76,0.00,,,0.00,Wunderground v.1.15,2013-06-02 12:39:00,
2013-06-02 08:44:00,74.9,66.8,29.86,SE,143,3.0,10.0,76,0.00,,,0.00,Wunderground v.1.15,2013-06-02 12:44:00,
2013-06-02 08:49:00,74.9,66.8,29.85,SSW,200,2.0,10.0,76,0.00,,,0.00,Wunderground v.1.15,2013-06-02 12:49:00,
2013-06-02 08:55:00,75.1,67.0,29.85,SE,127,2.0,10.0,76,0.00,,,0.00,Wunderground v.1.15,2013-06-02 12:55:00,
2013-06-02 09:00:00,75.3,66.8,29.85,South,172,3.0,3.0,75,0.00,,,0.00,Wunderground v.1.15,2013-06-02 13:00:00,
2013-06-02 09:06:00,75.4,66.9,29.85,SSW,212,3.0,13.0,75,0.00,,,0.00,Wunderground v.1.15,2013-06-02 13:06:00,
2013-06-02 09:11:00,75.8,66.9,29.85,South,184,3.0,13.0,74,0.00,,,0.00,Wunderground v.1.15,2013-06-02 13:11:00,
2013-06-02 09:16:00,76.1,67.2,29.86,West,272,2.0,13.0,74,0.00,,,0.00,Wunderground v.1.15,2013-06-02 13:16:00,
2013-06-02 09:22:00,76.5,67.6,29.86,SSE,148,2.0,13.0,74,0.00,,,0.00,Wunderground v.1.15,2013-06-02 13:22:00,
2013-06-02 09:27:00,76.7,67.0,29.86,WSW,241,2.0,13.0,72,0.00,,,0.00,Wunderground v.1.15,2013-06-02 13:27:00,
2013-06-02 09:32:00,77.0,67.7,29.85,South,188,2.0,13.0,73,0.00,,,0.00,Wunderground v.1.15,2013-06-02 13:32:00,
2013-06-02 09:37:00,77.2,67.9,29.85,SW,215,3.0,13.0,73,0.00,,,0.00,Wunderground v.1.15,2013-06-02 13:37:00,
2013-06-02 09:42:00,77.6,68.3,29.85,SSW,213,2.0,13.0,73,0.00,,,0.00,Wunderground v.1.15,2013-06-02 13:42:00,
2013-06-02 09:47:00,77.7,68.0,29.85,WSW,253,2.0,13.0,72,0.00,,,0.00,Wunderground v.1.15,2013-06-02 13:47:00,
2013-06-02 09:53:00,78.1,67.9,29.85,South,175,2.0,13.0,71,0.00,,,0.00,Wunderground v.1.15,2013-06-02 13:53:00,
2013-06-02 09:58:00,78.5,68.3,29.85,SSW,206,3.0,13.0,71,0.00,,,0.00,Wunderground v.1.15,2013-06-02 13:58:00,
2013-06-02 10:03:00,78.6,68.0,29.85,SSE,158,3.0,11.0,70,0.00,,,0.00,Wunderground v.1.15,2013-06-02 14:03:00,
2013-06-02 10:08:00,78.8,68.2,29.85,SSW,208,3.0,11.0,70,0.00,,,0.00,Wunderground v.1.15,2013-06-02 14:08:00,
2013-06-02 10:13:00,79.2,68.6,29.85,WNW,289,2.0,11.0,70,0.00,,,0.00,Wunderground v.1.15,2013-06-02 14:13:00,
2013-06-02 10:18:00,80.1,69.0,29.85,WSW,243,1.0,11.0,69,0.00,,,0.00,Wunderground v.1.15,2013-06-02 14:18:00,
2013-06-02 10:23:00,80.7,68.7,29.85,SE,140,1.0,11.0,67,0.00,,,0.00,Wunderground v.1.15,2013-06-02 14:23:00,
2013-06-02 10:29:00,80.7,69.6,29.85,South,185,2.0,11.0,69,0.00,,,0.00,Wunderground v.1.15,2013-06-02 14:29:00,
2013-06-02 10:34:00,80.7,68.7,29.85,SE,130,3.0,11.0,67,0.00,,,0.00,Wunderground v.1.15,2013-06-02 14:34:00,
2013-06-02 10:40:00,80.9,68.5,29.85,South,171,3.0,3.0,66,0.00,,,0.00,Wunderground v.1.15,2013-06-02 14:40:00,
2013-06-02 10:45:00,80.7,68.3,29.85,South,172,2.0,11.0,66,0.00,,,0.00,Wunderground v.1.15,2013-06-02 14:45:00,
2013-06-02 10:50:00,80.5,68.5,29.85,South,188,2.0,11.0,67,0.00,,,0.00,Wunderground v.1.15,2013-06-02 14:50:00,
2013-06-02 10:55:00,80.3,68.8,29.85,South,189,2.0,11.0,68,0.00,,,0.00,Wunderground v.1.15,2013-06-02 14:55:00,
2013-06-02 11:00:00,80.9,69.3,29.86,South,185,2.0,2.0,68,0.00,,,0.00,Wunderground v.1.15,2013-06-02 15:00:00,
2013-06-02 11:06:00,80.9,69.3,29.86,SSE,151,2.0,8.0,68,0.00,,,0.00,Wunderground v.1.15,2013-06-02 15:06:00,
2013-06-02 11:11:00,80.9,69.3,29.86,South,186,2.0,8.0,68,0.00,,,0.00,Wunderground v.1.15,2013-06-02 15:11:00,
2013-06-02 11:16:00,80.7,68.7,29.86,SE,136,2.0,8.0,67,0.00,,,0.00,Wunderground v.1.15,2013-06-02 15:16:00,
2013-06-02 11:21:00,81.4,69.4,29.86,South,186,2.0,8.0,67,0.00,,,0.00,Wunderground v.1.15,2013-06-02 15:21:00,
2013-06-02 11:26:00,81.4,69.8,29.86,NE,54,1.0,8.0,68,0.00,,,0.00,Wunderground v.1.15,2013-06-02 15:26:00,
2013-06-02 11:32:00,82.2,70.1,29.86,NW,304,2.0,8.0,67,0.00,,,0.00,Wunderground v.1.15,2013-06-02 15:32:00,
2013-06-02 11:38:00,82.0,69.5,29.86,SSW,195,2.0,8.0,66,0.00,,,0.00,Wunderground v.1.15,2013-06-02 15:38:00,
2013-06-02 11:43:00,82.0,69.5,29.86,SSW,209,2.0,8.0,66,0.00,,,0.00,Wunderground v.1.15,2013-06-02 15:43:00,
2013-06-02 11:48:00,82.6,70.1,29.86,SSE,147,3.0,8.0,66,0.00,,,0.00,Wunderground v.1.15,2013-06-02 15:48:00,
2013-06-02 11:53:00,82.6,70.1,29.86,West,281,2.0,8.0,66,0.00,,,0.00,Wunderground v.1.15,2013-06-02 15:53:00,
2013-06-02 11:59:00,82.4,69.4,29.86,WSW,237,2.0,8.0,65,0.00,,,0.00,Wunderground v.1.15,2013-06-02 15:59:00,
2013-06-02 12:04:00,81.8,68.4,29.85,South,179,3.0,9.0,64,0.00,,,0.00,Wunderground v.1.15,2013-06-02 16:04:00,
2013-06-02 12:09:00,81.6,69.1,29.85,SSW,192,2.0,9.0,66,0.00,,,0.00,Wunderground v.1.15,2013-06-02 16:09:00,
2013-06-02 12:14:00,82.2,69.7,29.85,SSW,209,1.0,9.0,66,0.00,,,0.00,Wunderground v.1.15,2013-06-02 16:14:00,
2013-06-02 12:19:00,81.8,69.3,29.85,West,271,2.0,9.0,66,0.00,,,0.00,Wunderground v.1.15,2013-06-02 16:19:00,
2013-06-02 12:24:00,81.8,70.2,29.85,SSW,200,2.0,9.0,68,0.00,,,0.00,Wunderground v.1.15,2013-06-02 16:24:00,
2013-06-02 12:29:00,81.8,69.3,29.85,South,182,2.0,9.0,66,0.00,,,0.00,Wunderground v.1.15,2013-06-02 16:29:00,
2013-06-02 12:34:00,81.8,69.8,29.85,SSE,162,2.0,9.0,67,0.00,,,0.00,Wunderground v.1.15,2013-06-02 16:34:00,
2013-06-02 12:39:00,82.2,69.7,29.85,SSE,158,2.0,9.0,66,0.00,,,0.00,Wunderground v.1.15,2013-06-02 16:39:00,
2013-06-02 12:45:00,83.4,70.4,29.85,SSW,208,2.0,9.0,65,0.00,,,0.00,Wunderground v.1.15,2013-06-02 16:45:00,
2013-06-02 12:50:00,83.8,69.9,29.85,SW,215,3.0,3.0,63,0.00,,,0.00,Wunderground v.1.15,2013-06-02 16:50:00,
2013-06-02 12:55:00,83.4,69.9,29.85,SW,217,3.0,9.0,64,0.00,,,0.00,Wunderground v.1.15,2013-06-02 16:55:00,
2013-06-02 13:00:00,83.6,69.2,29.85,SSW,203,2.0,2.0,62,0.00,,,0.00,Wunderground v.1.15,2013-06-02 17:00:00,
2013-06-02 13:06:00,83.8,71.2,29.85,WSW,254,2.0,8.0,66,0.00,,,0.00,Wunderground v.1.15,2013-06-02 17:06:00,
2013-06-02 13:11:00,83.6,69.2,29.85,SW,222,2.0,8.0,62,0.00,,,0.00,Wunderground v.1.15,2013-06-02 17:11:00,
2013-06-02 13:16:00,82.8,69.4,29.85,SSW,203,2.0,8.0,64,0.00,,,0.00,Wunderground v.1.15,2013-06-02 17:16:00,
2013-06-02 13:21:00,82.4,69.0,29.85,South,188,2.0,8.0,64,0.00,,,0.00,Wunderground v.1.15,2013-06-02 17:21:00,
2013-06-02 13:27:00,82.2,70.1,29.85,WSW,251,2.0,8.0,67,0.00,,,0.00,Wunderground v.1.15,2013-06-02 17:27:00,
2013-06-02 13:32:00,81.6,69.1,29.85,WNW,285,2.0,8.0,66,0.00,,,0.00,Wunderground v.1.15,2013-06-02 17:32:00,
2013-06-02 13:37:00,81.2,69.6,29.85,West,280,2.0,8.0,68,0.00,,,0.00,Wunderground v.1.15,2013-06-02 17:37:00,
2013-06-02 13:42:00,80.9,69.8,29.85,SW,216,3.0,8.0,69,0.00,,,0.00,Wunderground v.1.15,2013-06-02 17:42:00,
2013-06-02 13:47:00,80.7,68.7,29.85,WSW,244,2.0,8.0,67,0.00,,,0.00,Wunderground v.1.15,2013-06-02 17:47:00,
2013-06-02 13:52:00,80.7,69.6,29.85,SSW,198,2.0,8.0,69,0.00,,,0.00,Wunderground v.1.15,2013-06-02 17:52:00,
2013-06-02 13:57:00,80.5,69.0,29.85,South,169,2.0,8.0,68,0.00,,,0.00,Wunderground v.1.15,2013-06-02 17:57:00,
2013-06-02 14:02:00,80.3,70.0,29.85,South,189,1.0,9.0,71,0.00,,,0.00,Wunderground v.1.15,2013-06-02 18:02:00,
2013-06-02 14:08:00,80.1,69.8,29.85,South,181,1.0,9.0,71,0.00,,,0.00,Wunderground v.1.15,2013-06-02 18:08:00,
2013-06-02 14:13:00,80.3,70.0,29.85,West,271,1.0,9.0,71,0.00,,,0.00,Wunderground v.1.15,2013-06-02 18:13:00,
2013-06-02 14:18:00,80.5,69.4,29.85,South,178,2.0,9.0,69,0.00,,,0.00,Wunderground v.1.15,2013-06-02 18:18:00,
2013-06-02 14:23:00,80.5,70.2,29.85,WNW,289,2.0,9.0,71,0.00,,,0.00,Wunderground v.1.15,2013-06-02 18:23:00,
2013-06-02 14:28:00,80.5,70.6,29.85,NW,313,1.0,9.0,72,0.00,,,0.00,Wunderground v.1.15,2013-06-02 18:28:00,
2013-06-02 14:33:00,81.1,71.2,29.84,SSE,167,2.0,9.0,72,0.00,,,0.00,Wunderground v.1.15,2013-06-02 18:33:00,
2013-06-02 14:38:00,81.4,70.2,29.84,South,175,2.0,9.0,69,0.00,,,0.00,Wunderground v.1.15,2013-06-02 18:38:00,
2013-06-02 14:44:00,81.4,70.2,29.84,SE,140,2.0,9.0,69,0.00,,,0.00,Wunderground v.1.15,2013-06-02 18:44:00,
2013-06-02 14:49:00,81.2,70.9,29.84,SW,222,2.0,9.0,71,0.00,,,0.00,Wunderground v.1.15,2013-06-02 18:49:00,
2013-06-02 14:54:00,81.2,70.5,29.84,SW,226,2.0,7.0,70,0.00,,,0.00,Wunderground v.1.15,2013-06-02 18:54:00,
2013-06-02 14:59:00,81.4,70.7,29.84,South,176,2.0,7.0,70,0.00,,,0.00,Wunderground v.1.15,2013-06-02 18:59:00,
2013-06-02 15:04:00,81.6,70.4,29.83,SSE,161,2.0,10.0,69,0.00,,,0.00,Wunderground v.1.15,2013-06-02 19:04:00,
2013-06-02 15:10:00,82.2,72.3,29.83,SSE,158,2.0,9.0,72,0.00,,,0.00,Wunderground v.1.15,2013-06-02 19:10:00,
2013-06-02 15:15:00,82.4,71.6,29.82,North,0,1.0,9.0,70,0.00,,,0.00,Wunderground v.1.15,2013-06-02 19:15:00,
2013-06-02 15:20:00,82.8,71.6,29.82,SSE,151,1.0,9.0,69,0.00,,,0.00,Wunderground v.1.15,2013-06-02 19:20:00,
2013-06-02 15:25:00,83.2,71.1,29.82,South,191,2.0,9.0,67,0.00,,,0.00,Wunderground v.1.15,2013-06-02 19:25:00,
2013-06-02 15:31:00,82.8,70.3,29.82,WSW,243,2.0,9.0,66,0.00,,,0.00,Wunderground v.1.15,2013-06-02 19:31:00,
2013-06-02 15:36:00,82.6,70.5,29.82,SSE,154,3.0,9.0,67,0.00,,,0.00,Wunderground v.1.15,2013-06-02 19:36:00,
2013-06-02 15:41:00,82.8,70.3,29.82,SSW,212,3.0,9.0,66,0.00,,,0.00,Wunderground v.1.15,2013-06-02 19:41:00,
2013-06-02 15:47:00,82.8,72.0,29.82,South,172,3.0,9.0,70,0.00,,,0.00,Wunderground v.1.15,2013-06-02 19:47:00,
2013-06-02 15:53:00,83.0,70.9,29.82,SSW,203,1.0,9.0,67,0.00,,,0.00,Wunderground v.1.15,2013-06-02 19:53:00,
2013-06-02 15:58:00,82.8,70.3,29.82,SW,217,1.0,9.0,66,0.00,,,0.00,Wunderground v.1.15,2013-06-02 19:58:00,
2013-06-02 16:04:00,82.2,70.6,29.82,SW,215,2.0,7.0,68,0.00,,,0.00,Wunderground v.1.15,2013-06-02 20:04:00,
2013-06-02 16:09:00,82.4,70.8,29.82,NW,313,2.0,7.0,68,0.00,,,0.00,Wunderground v.1.15,2013-06-02 20:09:00,
2013-06-02 16:14:00,82.2,70.6,29.82,SSE,162,2.0,7.0,68,0.00,,,0.00,Wunderground v.1.15,2013-06-02 20:14:00,
2013-06-02 16:19:00,82.0,70.8,29.82,South,169,1.0,7.0,69,0.00,,,0.00,Wunderground v.1.15,2013-06-02 20:19:00,
2013-06-02 16:25:00,81.8,71.5,29.82,West,261,1.0,7.0,71,0.00,,,0.00,Wunderground v.1.15,2013-06-02 20:25:00,
2013-06-02 16:30:00,81.6,71.7,29.82,West,265,1.0,7.0,72,0.00,,,0.00,Wunderground v.1.15,2013-06-02 20:30:00,
2013-06-02 16:37:00,81.2,70.9,29.82,West,264,2.0,2.0,71,0.00,,,0.00,Wunderground v.1.15,2013-06-02 20:37:00,
2013-06-02 16:43:00,81.1,71.6,29.82,WSW,239,1.0,10.0,73,0.00,,,0.00,Wunderground v.1.15,2013-06-02 20:43:00,
2013-06-02 16:48:00,80.9,71.0,29.82,SSW,195,1.0,10.0,72,0.00,,,0.00,Wunderground v.1.15,2013-06-02 20:48:00,
2013-06-02 16:54:00,80.7,70.0,29.82,SW,223,2.0,10.0,70,0.00,,,0.00,Wunderground v.1.15,2013-06-02 20:54:00,
2013-06-02 16:59:00,80.7,70.0,29.81,SE,136,2.0,10.0,70,0.00,,,0.00,Wunderground v.1.15,2013-06-02 20:59:00,
2013-06-02 17:05:00,80.5,69.8,29.81,SSW,206,1.0,10.0,70,0.00,,,0.00,Wunderground v.1.15,2013-06-02 21:05:00,
2013-06-02 17:12:00,80.3,69.6,29.81,WSW,246,1.0,8.0,70,0.00,,,0.00,Wunderground v.1.15,2013-06-02 21:12:00,
2013-06-02 17:17:00,80.3,69.6,29.81,SSW,210,2.0,8.0,70,0.00,,,0.00,Wunderground v.1.15,2013-06-02 21:17:00,
2013-06-02 17:22:00,80.3,69.6,29.81,SSE,161,1.0,1.0,70,0.00,,,0.00,Wunderground v.1.15,2013-06-02 21:22:00,
2013-06-02 17:27:00,80.3,69.6,29.81,SSE,165,1.0,8.0,70,0.00,,,0.00,Wunderground v.1.15,2013-06-02 21:27:00,
2013-06-02 17:33:00,80.5,70.2,29.82,West,261,1.0,8.0,71,0.00,,,0.00,Wunderground v.1.15,2013-06-02 21:33:00,
2013-06-02 17:38:00,80.3,70.0,29.82,SW,217,2.0,8.0,71,0.00,,,0.00,Wunderground v.1.15,2013-06-02 21:38:00,
2013-06-02 17:43:00,80.3,70.4,29.82,NW,312,1.0,8.0,72,0.00,,,0.00,Wunderground v.1.15,2013-06-02 21:43:00,
2013-06-02 17:48:00,79.8,69.1,29.83,SE,143,2.0,8.0,70,0.00,,,0.00,Wunderground v.1.15,2013-06-02 21:48:00,
2013-06-02 17:53:00,79.0,68.4,29.83,NNE,31,2.0,2.0,70,0.00,,,0.00,Wunderground v.1.15,2013-06-02 21:53:00,
2013-06-02 17:58:00,78.5,68.3,29.83,NNW,342,2.0,8.0,71,0.00,,,0.00,Wunderground v.1.15,2013-06-02 21:58:00,
2013-06-02 18:04:00,77.4,67.7,29.83,NE,51,1.0,11.0,72,0.00,,,0.00,Wunderground v.1.15,2013-06-02 22:04:00,
2013-06-02 18:09:00,77.0,67.7,29.83,NE,51,0.0,11.0,73,0.00,,,0.00,Wunderground v.1.15,2013-06-02 22:09:00,
2013-06-02 18:14:00,76.7,67.8,29.83,North,0,0.0,11.0,74,0.00,,,0.00,Wunderground v.1.15,2013-06-02 22:14:00,
2013-06-02 18:19:00,76.1,67.6,29.84,NNE,13,1.0,11.0,75,0.00,,,0.00,Wunderground v.1.15,2013-06-02 22:19:00,
2013-06-02 18:24:00,75.4,67.3,29.84,NNW,346,2.0,11.0,76,0.00,,,0.00,Wunderground v.1.15,2013-06-02 22:24:00,
2013-06-02 18:30:00,75.1,67.0,29.84,NW,306,1.0,11.0,76,0.00,,,0.00,Wunderground v.1.15,2013-06-02 22:30:00,
2013-06-02 18:35:00,74.7,67.4,29.84,NNE,31,0.0,11.0,78,1.32,,,0.05,Wunderground v.1.15,2013-06-02 22:35:00,
2013-06-02 18:40:00,74.2,67.6,29.84,ESE,119,1.0,2.0,80,0.21,,,0.09,Wunderground v.1.15,2013-06-02 22:40:00,
2013-06-02 18:45:00,73.7,67.5,29.85,North,356,2.0,11.0,81,0.12,,,0.10,Wunderground v.1.15,2013-06-02 22:45:00,
2013-06-02 18:50:00,73.2,67.7,29.85,SSE,148,1.0,11.0,83,1.93,,,0.14,Wunderground v.1.15,2013-06-02 22:50:00,
2013-06-02 18:55:00,72.7,67.6,29.85,SW,216,0.0,11.0,84,1.38,,,0.34,Wunderground v.1.15,2013-06-02 22:55:00,
2013-06-02 19:01:00,72.3,67.5,29.84,SW,216,0.0,7.0,85,0.15,,,0.39,Wunderground v.1.15,2013-06-02 23:01:00,
2013-06-02 19:06:00,72.1,68.0,29.84,SSW,209,0.0,7.0,87,0.07,,,0.39,Wunderground v.1.15,2013-06-02 23:06:00,
2013-06-02 19:11:00,72.0,68.2,29.84,SSW,209,0.0,7.0,88,0.04,,,0.39,Wunderground v.1.15,2013-06-02 23:11:00,
2013-06-02 19:16:00,71.8,68.1,29.84,SSW,213,0.0,7.0,88,0.00,,,0.39,Wunderground v.1.15,2013-06-02 23:16:00,
2013-06-02 19:23:00,71.6,68.2,29.84,SSW,213,0.0,8.0,89,0.00,,,0.39,Wunderground v.1.15,2013-06-02 23:23:00,
2013-06-02 19:28:00,71.6,68.5,29.84,SSW,213,0.0,8.0,90,0.00,,,0.39,Wunderground v.1.15,2013-06-02 23:28:00,
2013-06-02 19:33:00,71.5,68.4,29.83,SSW,213,0.0,2.0,90,0.00,,,0.39,Wunderground v.1.15,2013-06-02 23:33:00,
2013-06-02 19:38:00,71.5,68.4,29.83,SSW,213,0.0,2.0,90,0.00,,,0.39,Wunderground v.1.15,2013-06-02 23:38:00,
2013-06-02 19:44:00,71.5,68.7,29.83,SSW,213,0.0,2.0,91,0.00,,,0.39,Wunderground v.1.15,2013-06-02 23:44:00,
2013-06-02 19:49:00,71.3,68.5,29.83,SSW,213,0.0,2.0,91,0.00,,,0.39,Wunderground v.1.15,2013-06-02 23:49:00,
2013-06-02 19:54:00,71.3,68.5,29.83,SSW,213,0.0,2.0,91,0.00,,,0.39,Wunderground v.1.15,2013-06-02 23:54:00,
2013-06-02 19:59:00,71.3,68.9,29.83,SSW,213,0.0,2.0,92,0.00,,,0.39,Wunderground v.1.15,2013-06-02 23:59:00,
2013-06-02 20:05:00,71.3,68.9,29.83,SSW,212,0.0,2.0,92,0.00,,,0.39,Wunderground v.1.15,2013-06-03 00:05:00,
2013-06-02 20:11:00,71.1,68.7,29.83,SSW,212,0.0,2.0,92,0.00,,,0.39,Wunderground v.1.15,2013-06-03 00:11:00,
2013-06-02 20:16:00,71.1,68.7,29.84,SSW,212,0.0,2.0,92,0.00,,,0.39,Wunderground v.1.15,2013-06-03 00:16:00,
2013-06-02 20:22:00,71.1,69.0,29.84,SSW,212,0.0,2.0,93,0.00,,,0.39,Wunderground v.1.15,2013-06-03 00:22:00,
2013-06-02 20:27:00,71.1,69.0,29.84,SSW,212,0.0,2.0,93,0.00,,,0.39,Wunderground v.1.15,2013-06-03 00:27:00,
2013-06-02 20:32:00,70.9,68.8,29.84,SSW,212,0.0,2.0,93,0.00,,,0.39,Wunderground v.1.15,2013-06-03 00:32:00,
2013-06-02 20:37:00,70.9,68.8,29.84,SSW,212,0.0,2.0,93,0.00,,,0.39,Wunderground v.1.15,2013-06-03 00:37:00,
2013-06-02 20:42:00,70.9,68.8,29.84,SSW,212,0.0,2.0,93,0.00,,,0.39,Wunderground v.1.15,2013-06-03 00:42:00,
2013-06-02 20:48:00,70.8,68.7,29.84,SSW,212,0.0,2.0,93,0.00,,,0.39,Wunderground v.1.15,2013-06-03 00:48:00,
2013-06-02 20:54:00,70.8,68.7,29.84,SSW,212,0.0,2.0,93,0.00,,,0.39,Wunderground v.1.15,2013-06-03 00:54:00,
2013-06-02 21:00:00,70.8,69.0,29.85,SSW,212,0.0,2.0,94,0.00,,,0.39,Wunderground v.1.15,2013-06-03 01:00:00,
2013-06-02 21:06:00,70.8,69.0,29.85,SSW,212,0.0,2.0,94,0.00,,,0.39,Wunderground v.1.15,2013-06-03 01:06:00,
2013-06-02 21:11:00,70.8,69.0,29.85,SSW,212,0.0,2.0,94,0.00,,,0.39,Wunderground v.1.15,2013-06-03 01:11:00,
2013-06-02 21:16:00,70.8,69.0,29.85,SSW,212,0.0,2.0,94,0.00,,,0.39,Wunderground v.1.15,2013-06-03 01:16:00,
2013-06-02 21:22:00,70.8,69.0,29.85,SSW,212,0.0,2.0,94,0.00,,,0.39,Wunderground v.1.15,2013-06-03 01:22:00,
2013-06-02 21:28:00,70.8,69.0,29.85,SSW,212,0.0,2.0,94,0.00,,,0.39,Wunderground v.1.15,2013-06-03 01:28:00,
2013-06-02 21:33:00,70.8,69.3,29.86,SSW,212,0.0,2.0,95,0.00,,,0.39,Wunderground v.1.15,2013-06-03 01:33:00,
2013-06-02 21:39:00,70.8,69.3,29.86,SSW,212,0.0,2.0,95,0.00,,,0.39,Wunderground v.1.15,2013-06-03 01:39:00,
2013-06-02 21:47:00,70.8,69.3,29.86,SSW,209,0.0,0.0,95,0.00,,,0.39,Wunderground v.1.15,2013-06-03 01:47:00,
2013-06-02 21:52:00,70.8,69.3,29.86,SSW,209,0.0,0.0,95,0.00,,,0.39,Wunderground v.1.15,2013-06-03 01:52:00,
2013-06-02 21:58:00,70.8,69.3,29.86,SSW,209,0.0,0.0,95,0.00,,,0.39,Wunderground v.1.15,2013-06-03 01:58:00,
2013-06-02 22:03:00,70.8,69.3,29.86,SSW,198,0.0,6.0,95,0.00,,,0.39,Wunderground v.1.15,2013-06-03 02:03:00,
2013-06-02 22:09:00,70.8,69.3,29.86,South,184,1.0,6.0,95,0.00,,,0.39,Wunderground v.1.15,2013-06-03 02:09:00,
2013-06-02 22:14:00,70.8,69.6,29.86,SSE,148,1.0,6.0,96,0.00,,,0.39,Wunderground v.1.15,2013-06-03 02:14:00,
2013-06-02 22:19:00,70.8,69.6,29.85,SW,220,0.0,6.0,96,0.00,,,0.39,Wunderground v.1.15,2013-06-03 02:19:00,
2013-06-02 22:24:00,70.8,69.6,29.85,South,191,0.0,6.0,96,0.00,,,0.39,Wunderground v.1.15,2013-06-03 02:24:00,
2013-06-02 22:30:00,70.8,69.6,29.85,SSE,151,0.0,6.0,96,0.00,,,0.39,Wunderground v.1.15,2013-06-03 02:30:00,
2013-06-02 22:35:00,70.8,69.6,29.85,SSW,203,0.0,6.0,96,0.00,,,0.39,Wunderground v.1.15,2013-06-03 02:35:00,
2013-06-02 22:40:00,70.8,69.6,29.85,SSW,203,0.0,6.0,96,0.00,,,0.39,Wunderground v.1.15,2013-06-03 02:40:00,
2013-06-02 22:45:00,70.6,69.4,29.85,SW,223,0.0,6.0,96,0.00,,,0.39,Wunderground v.1.15,2013-06-03 02:45:00,
2013-06-02 22:50:00,70.6,69.4,29.85,SSW,213,0.0,6.0,96,0.00,,,0.39,Wunderground v.1.15,2013-06-03 02:50:00,
2013-06-02 22:55:00,70.6,69.4,29.85,SSW,213,0.0,6.0,96,0.00,,,0.39,Wunderground v.1.15,2013-06-03 02:55:00,
2013-06-02 23:00:00,70.4,69.2,29.85,SSW,196,0.0,2.0,96,0.00,,,0.39,Wunderground v.1.15,2013-06-03 03:00:00,
2013-06-02 23:06:00,70.4,69.2,29.85,South,175,1.0,6.0,96,0.00,,,0.39,Wunderground v.1.15,2013-06-03 03:06:00,
2013-06-02 23:11:00,70.4,69.2,29.85,South,169,0.0,2.0,96,0.00,,,0.39,Wunderground v.1.15,2013-06-03 03:11:00,
2013-06-02 23:16:00,70.3,69.1,29.84,South,169,0.0,2.0,96,0.00,,,0.39,Wunderground v.1.15,2013-06-03 03:16:00,
2013-06-02 23:21:00,70.3,69.1,29.84,South,169,0.0,2.0,96,0.00,,,0.39,Wunderground v.1.15,2013-06-03 03:21:00,
2013-06-02 23:27:00,70.3,68.8,29.84,SSE,165,0.0,2.0,95,0.00,,,0.39,Wunderground v.1.15,2013-06-03 03:27:00,
2013-06-02 23:32:00,70.1,68.6,29.83,SSW,193,0.0,2.0,95,0.00,,,0.39,Wunderground v.1.15,2013-06-03 03:32:00,
2013-06-02 23:37:00,70.1,68.9,29.83,South,175,0.0,2.0,96,0.00,,,0.39,Wunderground v.1.15,2013-06-03 03:37:00,
2013-06-02 23:42:00,70.1,68.9,29.83,South,175,0.0,2.0,96,0.00,,,0.39,Wunderground v.1.15,2013-06-03 03:42:00,
2013-06-02 23:48:00,69.9,68.7,29.83,SSE,155,0.0,6.0,96,0.00,,,0.39,Wunderground v.1.15,2013-06-03 03:48:00,
2013-06-02 23:54:00,69.9,68.7,29.83,SSE,161,0.0,6.0,96,0.00,,,0.39,Wunderground v.1.15,2013-06-03 03:54:00,
2013-06-02 23:59:00,69.9,68.7,29.83,SSE,157,0.0,6.0,96,0.00,,,0.39,Wunderground v.1.15,2013-06-03 03:59:00,